THY72 LTFM-OMDB

Flight info

Callsign THY72
Flight time N/A
Altitude 27000
Route VICEN1D/35L VICEN T57 VEVUD/N0491F410 UT341 BAG UL614 OTKEP UM688 RATVO M688 SIDAD P975 SESRU M677 VUTEB
Aircraft A359/H-SDE2E3GHIJ3J4J5LM1ORWXY/LB1D1

Departure

Time 2026-05-05 17:15
Airport İstanbul Airport (LTFM)

Arrival

Time N/A
Airport Dubai International Airport (OMDB)
Time Latitude Longitude Altitude Speed Heading
2026-05-05 16:35 41.25756 28.73483 340 ft 0 kts 89°
2026-05-05 17:06 41.25756 28.73479 335 ft 3 kts 89°
2026-05-05 17:06 41.25756 28.73445 336 ft 4 kts 89°
2026-05-05 17:07 41.25756 28.73409 335 ft 4 kts 90°
2026-05-05 17:07 41.25754 28.73379 335 ft 4 kts 57°
2026-05-05 17:07 41.25735 28.73364 335 ft 4 kts 359°
2026-05-05 17:07 41.25716 28.73365 335 ft 0 kts 359°
2026-05-05 17:10 41.25729 28.73365 336 ft 4 kts 358°
2026-05-05 17:11 41.25774 28.73359 338 ft 9 kts 347°
2026-05-05 17:11 41.25820 28.73291 335 ft 12 kts 302°
2026-05-05 17:11 41.25904 28.73246 337 ft 15 kts 354°
2026-05-05 17:11 41.26019 28.73241 337 ft 18 kts 359°
2026-05-05 17:12 41.26153 28.73235 338 ft 18 kts 353°
2026-05-05 17:12 41.26212 28.73157 336 ft 11 kts 274°
2026-05-05 17:12 41.26215 28.73031 336 ft 16 kts 269°
2026-05-05 17:12 41.26214 28.72980 338 ft 0 kts 269°
2026-05-05 17:13 41.26214 28.72956 340 ft 5 kts 269°
2026-05-05 17:13 41.26213 28.72881 340 ft 11 kts 269°
2026-05-05 17:14 41.26212 28.72758 340 ft 16 kts 267°
2026-05-05 17:14 41.26210 28.72656 335 ft 17 kts 270°
2026-05-05 17:14 41.26272 28.72528 335 ft 19 kts 352°
2026-05-05 17:14 41.26412 28.72521 335 ft 23 kts 359°
2026-05-05 17:15 41.26762 28.72513 338 ft 85 kts 358°
2026-05-05 17:15 41.27935 28.72485 336 ft 166 kts 359°
2026-05-05 17:15 41.28748 28.72468 691 ft 172 kts 359°
2026-05-05 17:15 41.29942 28.72431 1470 ft 176 kts 358°
2026-05-05 17:16 41.31229 28.72410 1976 ft 195 kts
2026-05-05 17:16 41.32622 28.72440 2618 ft 203 kts
2026-05-05 17:16 41.34099 28.72473 3107 ft 225 kts
2026-05-05 17:16 41.35717 28.72338 3693 ft 239 kts 348°
2026-05-05 17:17 41.37208 28.71341 4445 ft 246 kts 321°
2026-05-05 17:17 41.38112 28.69392 5024 ft 258 kts 289°
2026-05-05 17:17 41.38252 28.66969 5879 ft 266 kts 275°
2026-05-05 17:17 41.38204 28.64522 6784 ft 270 kts 274°
2026-05-05 17:18 41.38148 28.61980 7664 ft 273 kts 274°
2026-05-05 17:18 41.37971 28.59462 8564 ft 282 kts 263°
2026-05-05 17:18 41.37157 28.57033 9482 ft 297 kts 237°
2026-05-05 17:18 41.35552 28.55225 10311 ft 312 kts 210°
2026-05-05 17:19 41.33383 28.54492 10718 ft 338 kts 180°
2026-05-05 17:19 41.30976 28.54836 11107 ft 358 kts 173°
2026-05-05 17:19 41.28423 28.55075 11530 ft 377 kts 177°
2026-05-05 17:19 41.25788 28.55608 12171 ft 386 kts 161°
2026-05-05 17:20 41.23411 28.57245 12935 ft 386 kts 139°
2026-05-05 17:20 41.21412 28.59641 13776 ft 389 kts 132°
2026-05-05 17:20 41.19471 28.62177 14511 ft 394 kts 132°
2026-05-05 17:20 41.17508 28.64734 15231 ft 398 kts 133°
2026-05-05 17:21 41.15519 28.67305 15998 ft 401 kts 133°
2026-05-05 17:21 41.13522 28.69891 16800 ft 402 kts 132°
2026-05-05 17:21 41.11756 28.72770 17543 ft 403 kts 122°
2026-05-05 17:22 41.08669 28.79047 18954 ft 410 kts 121°
2026-05-05 17:22 41.07113 28.82239 19627 ft 414 kts 121°
2026-05-05 17:22 41.05544 28.85452 20314 ft 418 kts 121°
2026-05-05 17:22 41.03951 28.88692 21016 ft 421 kts 121°
2026-05-05 17:23 41.02302 28.91917 21716 ft 425 kts 125°
2026-05-05 17:23 41.00335 28.94871 22406 ft 430 kts 133°
2026-05-05 17:23 40.98202 28.97671 23130 ft 433 kts 134°
2026-05-05 17:23 40.96036 29.00470 23788 ft 437 kts 134°
2026-05-05 17:24 40.93853 29.03292 24330 ft 440 kts 134°
2026-05-05 17:24 40.91657 29.06136 24907 ft 443 kts 134°
2026-05-05 17:24 40.89444 29.09002 25479 ft 446 kts 134°
2026-05-05 17:24 40.87240 29.11906 26051 ft 449 kts 131°
2026-05-05 17:25 40.85295 29.15131 26615 ft 450 kts 121°
2026-05-05 17:25 40.84282 29.17515 26970 ft 450 kts 114°
2026-05-05 17:25 40.82927 29.22741 27726 ft 451 kts 103°
2026-05-05 17:25 40.82138 29.26769 28242 ft 455 kts 103°
2026-05-05 17:26 40.81360 29.30788 28701 ft 460 kts 103°
2026-05-05 17:26 40.80561 29.34884 29206 ft 463 kts 103°
2026-05-05 17:26 40.79746 29.39011 29723 ft 466 kts 103°
2026-05-05 17:26 40.78921 29.43166 30205 ft 469 kts 103°
2026-05-05 17:27 40.78088 29.47345 30585 ft 473 kts 103°
2026-05-05 17:27 40.77247 29.51553 30912 ft 477 kts 103°
2026-05-05 17:27 40.76398 29.55801 31220 ft 481 kts 103°
2026-05-05 17:27 40.75538 29.60087 31481 ft 486 kts 103°
2026-05-05 17:28 40.74666 29.64413 31812 ft 489 kts 103°
2026-05-05 17:28 40.73842 29.68774 32130 ft 491 kts 99°
2026-05-05 17:28 40.73412 29.73232 32435 ft 491 kts 91°
2026-05-05 17:28 40.73294 29.77747 32734 ft 494 kts 89°
2026-05-05 17:29 40.73221 29.82275 33114 ft 494 kts 89°
2026-05-05 17:29 40.73146 29.86816 33505 ft 495 kts 89°
2026-05-05 17:29 40.73067 29.91355 33879 ft 496 kts 89°
2026-05-05 17:29 40.72983 29.95899 34254 ft 496 kts 89°
2026-05-05 17:30 40.72896 30.00440 34583 ft 496 kts 89°
2026-05-05 17:30 40.72701 30.04985 34879 ft 498 kts 94°
2026-05-05 17:30 40.72139 30.09507 35050 ft 503 kts 101°
2026-05-05 17:31 40.69998 30.18307 35077 ft 505 kts 108°
2026-05-05 17:31 40.67402 30.26930 35079 ft 507 kts 110°
2026-05-05 17:32 40.64735 30.35526 35075 ft 507 kts 110°
2026-05-05 17:32 40.62095 30.44133 35077 ft 507 kts 110°
2026-05-05 17:33 40.59474 30.52753 35079 ft 508 kts 109°
2026-05-05 17:33 40.56849 30.61385 35078 ft 508 kts 110°
2026-05-05 17:34 40.54212 30.70022 35081 ft 508 kts 110°
2026-05-05 17:34 40.51586 30.78589 35081 ft 508 kts 110°
2026-05-05 17:35 40.48938 30.87201 35080 ft 508 kts 110°
2026-05-05 17:35 40.46284 30.95805 35090 ft 508 kts 110°
2026-05-05 17:36 40.43621 31.04411 35075 ft 509 kts 110°
2026-05-05 17:36 40.40952 31.13010 35069 ft 509 kts 110°
2026-05-05 17:37 40.38373 31.21667 35065 ft 507 kts 104°
2026-05-05 17:37 40.36693 31.30630 35062 ft 506 kts 100°
2026-05-05 17:38 40.35220 31.39645 35062 ft 506 kts 99°
2026-05-05 17:38 40.33773 31.48669 35055 ft 506 kts 99°
2026-05-05 17:39 40.32306 31.57686 35052 ft 506 kts 99°
2026-05-05 17:39 40.30819 31.66712 35039 ft 507 kts 99°
2026-05-05 17:40 40.29323 31.75723 35036 ft 507 kts 99°
2026-05-05 17:40 40.27819 31.84740 35038 ft 507 kts 99°
2026-05-05 17:41 40.26299 31.93776 35037 ft 508 kts 100°
2026-05-05 17:41 40.24437 32.02722 35032 ft 510 kts 104°
2026-05-05 17:42 40.22401 32.11608 35028 ft 511 kts 104°
2026-05-05 17:42 40.20395 32.20534 35031 ft 512 kts 103°
2026-05-05 17:43 40.18424 32.29486 35024 ft 512 kts 103°
2026-05-05 17:43 40.16469 32.38394 35029 ft 513 kts 103°
2026-05-05 17:44 40.14485 32.47393 35025 ft 516 kts 103°
2026-05-05 17:44 40.12491 32.56397 35016 ft 515 kts 103°
2026-05-05 17:45 40.10490 32.65387 35028 ft 515 kts 103°
2026-05-05 17:45 40.08480 32.74385 35017 ft 517 kts 103°
2026-05-05 17:46 40.06445 32.83399 35019 ft 518 kts 105°
2026-05-05 17:46 40.03936 32.92241 35036 ft 520 kts 109°
2026-05-05 17:47 40.01211 33.00995 35005 ft 521 kts 109°
2026-05-05 17:47 39.98533 33.09789 35003 ft 521 kts 109°
2026-05-05 17:48 39.95908 33.18596 35002 ft 521 kts 108°
2026-05-05 17:48 39.93306 33.27369 35004 ft 522 kts 108°
2026-05-05 17:49 39.90679 33.36197 35002 ft 522 kts 108°
2026-05-05 17:49 39.88044 33.45007 34996 ft 522 kts 108°
2026-05-05 17:50 39.85401 33.53811 34992 ft 522 kts 109°
2026-05-05 17:50 39.82948 33.62697 34996 ft 520 kts 103°
2026-05-05 17:51 39.81025 33.71761 34995 ft 519 kts 102°
2026-05-05 17:51 39.79187 33.80852 34998 ft 519 kts 101°
2026-05-05 17:52 39.77234 33.89823 34997 ft 520 kts 106°
2026-05-05 17:52 39.74798 33.98752 34995 ft 521 kts 107°
2026-05-05 17:53 39.72290 34.07584 34998 ft 521 kts 107°
2026-05-05 17:53 39.69786 34.16332 34993 ft 520 kts 107°
2026-05-05 17:54 39.67270 34.25128 34993 ft 520 kts 107°
2026-05-05 17:54 39.64751 34.33924 34999 ft 519 kts 108°
2026-05-05 17:55 39.62237 34.42681 34998 ft 517 kts 108°
2026-05-05 17:55 39.59722 34.51412 35000 ft 517 kts 108°
2026-05-05 17:56 39.57194 34.60147 35005 ft 517 kts 108°
2026-05-05 17:56 39.54664 34.68863 34996 ft 515 kts 108°
2026-05-05 17:57 39.52148 34.77500 34999 ft 515 kts 108°
2026-05-05 17:57 39.49614 34.86176 35007 ft 515 kts 109°
2026-05-05 17:58 39.47077 34.94839 34997 ft 514 kts 109°
2026-05-05 17:58 39.44533 35.03490 34995 ft 514 kts 109°
2026-05-05 17:59 39.41984 35.12129 35000 ft 514 kts 109°
2026-05-05 17:59 39.39436 35.20752 34994 ft 513 kts 109°
2026-05-05 18:00 39.37355 35.27921 35003 ft 512 kts 109°
2026-05-05 18:00 39.34868 35.36549 35007 ft 512 kts 109°
2026-05-05 18:01 39.32370 35.45166 35011 ft 512 kts 109°
2026-05-05 18:01 39.29861 35.53769 34997 ft 512 kts 110°
2026-05-05 18:02 39.27344 35.62362 35014 ft 512 kts 110°
2026-05-05 18:02 39.24819 35.70957 35011 ft 512 kts 110°
2026-05-05 18:03 39.22286 35.79552 35016 ft 513 kts 110°
2026-05-05 18:03 39.19745 35.88147 35016 ft 513 kts 110°
2026-05-05 18:04 39.17198 35.96733 35004 ft 513 kts 110°
2026-05-05 18:04 39.15124 36.05470 35023 ft 510 kts 101°
2026-05-05 18:05 39.13875 36.14403 35013 ft 509 kts 98°
2026-05-05 18:05 39.12748 36.23417 35012 ft 509 kts 98°
2026-05-05 18:06 39.11625 36.32423 35014 ft 509 kts 98°
2026-05-05 18:06 39.10479 36.41425 35013 ft 509 kts 99°
2026-05-05 18:07 39.09316 36.50423 35009 ft 509 kts 99°
2026-05-05 18:07 39.08146 36.59414 35010 ft 509 kts 99°
2026-05-05 18:08 39.06969 36.68402 35008 ft 509 kts 99°
2026-05-05 18:08 39.05786 36.77381 35007 ft 509 kts 99°
2026-05-05 18:09 39.04597 36.86361 34999 ft 509 kts 99°
2026-05-05 18:09 39.03401 36.95336 34999 ft 508 kts 100°
2026-05-05 18:10 39.02199 37.04294 34996 ft 508 kts 100°
2026-05-05 18:10 39.00990 37.13251 34987 ft 508 kts 100°
2026-05-05 18:11 38.99776 37.22197 34974 ft 508 kts 101°
2026-05-05 18:11 38.98553 37.31153 34980 ft 509 kts 101°
2026-05-05 18:12 38.97331 37.40042 34973 ft 509 kts 101°
2026-05-05 18:12 38.96093 37.49003 34961 ft 509 kts 101°
2026-05-05 18:13 38.94849 37.57953 34958 ft 509 kts 101°
2026-05-05 18:13 38.93599 37.66892 34957 ft 508 kts 101°
2026-05-05 18:14 38.92345 37.75814 34949 ft 507 kts 101°
2026-05-05 18:14 38.91086 37.84710 34941 ft 507 kts 102°
2026-05-05 18:15 38.89819 37.93626 34948 ft 508 kts 102°
2026-05-05 18:15 38.88543 38.02546 34930 ft 508 kts 102°
2026-05-05 18:16 38.87260 38.11459 34921 ft 508 kts 102°
2026-05-05 18:16 38.85970 38.20375 34931 ft 508 kts 102°
2026-05-05 18:17 38.84674 38.29284 34927 ft 508 kts 102°
2026-05-05 18:17 38.83379 38.38135 34922 ft 508 kts 102°
2026-05-05 18:18 38.82068 38.47046 34920 ft 508 kts 102°
2026-05-05 18:18 38.80754 38.55932 34919 ft 507 kts 103°
2026-05-05 18:19 38.79433 38.64811 34915 ft 507 kts 103°
2026-05-05 18:19 38.78105 38.73694 34912 ft 507 kts 103°
2026-05-05 18:20 38.76771 38.82568 34911 ft 507 kts 103°
2026-05-05 18:20 38.75432 38.91433 34917 ft 506 kts 103°
2026-05-05 18:21 38.74120 39.00249 34914 ft 507 kts 103°
2026-05-05 18:21 38.72811 39.09119 34916 ft 507 kts 103°
2026-05-05 18:22 38.71494 39.17979 34916 ft 507 kts 103°
2026-05-05 18:22 38.69593 39.26611 34912 ft 502 kts 112°
2026-05-05 18:23 38.67219 39.34987 34919 ft 500 kts 114°
2026-05-05 18:23 38.64765 39.43314 34920 ft 500 kts 114°
2026-05-05 18:24 38.62308 39.51638 34919 ft 500 kts 114°
2026-05-05 18:24 38.59892 39.59972 34916 ft 500 kts 113°
2026-05-05 18:25 38.57493 39.68319 34915 ft 500 kts 114°
2026-05-05 18:25 38.55100 39.76609 34924 ft 501 kts 114°
2026-05-05 18:26 38.52683 39.84940 34920 ft 500 kts 114°
2026-05-05 18:26 38.50257 39.93272 34904 ft 500 kts 114°
2026-05-05 18:27 38.47823 40.01601 34917 ft 501 kts 114°
2026-05-05 18:27 38.45379 40.09940 34909 ft 501 kts 114°
2026-05-05 18:28 38.41703 40.22437 34908 ft 502 kts 115°
2026-05-05 18:28 38.39235 40.30791 34906 ft 504 kts 115°
2026-05-05 18:29 38.36761 40.39141 34904 ft 504 kts 115°
2026-05-05 18:29 38.34279 40.47499 34906 ft 504 kts 115°
2026-05-05 18:30 38.31787 40.55859 34910 ft 505 kts 115°
2026-05-05 18:30 38.29288 40.64220 34904 ft 505 kts 115°
2026-05-05 18:31 38.26782 40.72578 34885 ft 505 kts 116°
2026-05-05 18:31 38.24271 40.80930 34903 ft 506 kts 116°
2026-05-05 18:32 38.21725 40.89268 34900 ft 505 kts 116°
2026-05-05 18:32 38.19149 40.97508 34881 ft 505 kts 117°
2026-05-05 18:33 38.16550 41.05795 34891 ft 505 kts 117°
2026-05-05 18:33 38.13954 41.14087 34886 ft 505 kts 117°
2026-05-05 18:34 38.11393 41.22421 34860 ft 505 kts 116°
2026-05-05 18:34 38.08852 41.30752 34888 ft 507 kts 117°
2026-05-05 18:35 38.06297 41.39090 34887 ft 507 kts 117°
2026-05-05 18:35 38.03744 41.47376 34885 ft 507 kts 117°
2026-05-05 18:36 38.01171 41.55705 34886 ft 508 kts 117°
2026-05-05 18:36 37.98588 41.64051 34890 ft 508 kts 117°
2026-05-05 18:37 37.96001 41.72379 34888 ft 508 kts 117°
2026-05-05 18:37 37.93403 41.80715 34889 ft 509 kts 118°
2026-05-05 18:38 37.91210 41.89302 34896 ft 521 kts 106°
2026-05-05 18:38 37.90346 41.98467 34888 ft 526 kts 101°
2026-05-05 18:39 37.89770 42.07709 34897 ft 527 kts 100°
2026-05-05 18:39 37.89223 42.16961 34902 ft 525 kts 100°
2026-05-05 18:40 37.88641 42.26168 34905 ft 525 kts 100°
2026-05-05 18:40 37.88030 42.35307 34901 ft 524 kts 100°
2026-05-05 18:41 37.87402 42.44503 34908 ft 525 kts 101°
2026-05-05 18:41 37.86769 42.53732 34917 ft 527 kts 101°
2026-05-05 18:42 37.85920 42.62898 34915 ft 520 kts 109°
2026-05-05 18:42 37.83381 42.71249 34908 ft 502 kts 125°
2026-05-05 18:43 37.79898 42.78862 34934 ft 500 kts 128°
2026-05-05 18:43 37.76264 42.86342 34941 ft 500 kts 129°
2026-05-05 18:44 37.72623 42.93830 34929 ft 500 kts 129°
2026-05-05 18:44 37.68994 43.01343 34945 ft 501 kts 128°
2026-05-05 18:45 37.65367 43.08870 34953 ft 501 kts 128°
2026-05-05 18:45 37.62357 43.15111 34944 ft 501 kts 129°
2026-05-05 18:46 37.58136 43.23836 34964 ft 502 kts 129°
2026-05-05 18:46 37.54494 43.31350 34947 ft 502 kts 129°
2026-05-05 18:47 37.50850 43.38843 34951 ft 503 kts 129°
2026-05-05 18:47 37.47186 43.46354 34946 ft 504 kts 129°
2026-05-05 18:48 37.44138 43.52599 34940 ft 504 kts 129°
2026-05-05 18:48 37.40465 43.60109 34928 ft 503 kts 129°
2026-05-05 18:49 37.36789 43.67609 34937 ft 504 kts 129°
2026-05-05 18:49 37.33102 43.75104 34899 ft 504 kts 129°
2026-05-05 18:50 37.29402 43.82616 34934 ft 505 kts 129°
2026-05-05 18:50 37.25376 43.89730 34925 ft 492 kts 140°
2026-05-05 18:51 37.20189 43.94924 34928 ft 471 kts 159°
2026-05-05 18:51 37.14264 43.98162 34919 ft 462 kts 166°
2026-05-05 18:52 37.08242 44.00931 34912 ft 460 kts 167°
2026-05-05 18:52 37.02215 44.03659 34904 ft 461 kts 167°
2026-05-05 18:53 36.96198 44.06420 34905 ft 460 kts 167°
2026-05-05 18:53 36.90197 44.09200 34900 ft 460 kts 167°
2026-05-05 18:54 36.84195 44.11983 34899 ft 460 kts 167°
2026-05-05 18:54 36.78188 44.14761 34896 ft 460 kts 167°
2026-05-05 18:55 36.72195 44.17536 34900 ft 459 kts 167°
2026-05-05 18:55 36.66204 44.20295 34899 ft 459 kts 168°
2026-05-05 18:56 36.60248 44.23025 34900 ft 459 kts 168°
2026-05-05 18:56 36.54258 44.25770 34899 ft 459 kts 168°
2026-05-05 18:57 36.48267 44.28514 34904 ft 458 kts 168°
2026-05-05 18:57 36.42295 44.31245 34873 ft 457 kts 168°
2026-05-05 18:58 36.36319 44.33974 34907 ft 457 kts 169°
2026-05-05 18:58 36.30349 44.36696 34906 ft 457 kts 169°
2026-05-05 18:59 36.24388 44.39408 34898 ft 456 kts 169°
2026-05-05 18:59 36.18431 44.42116 34903 ft 456 kts 169°
2026-05-05 19:00 36.12472 44.44818 34904 ft 456 kts 169°
2026-05-05 19:00 36.06524 44.47512 34900 ft 455 kts 170°
2026-05-05 19:01 36.00572 44.50202 34901 ft 455 kts 170°
2026-05-05 19:01 35.94621 44.52888 34883 ft 455 kts 170°
2026-05-05 19:02 35.88675 44.55568 34894 ft 455 kts 170°
2026-05-05 19:02 35.82720 44.58248 34901 ft 455 kts 170°
2026-05-05 19:03 35.76811 44.60902 34902 ft 456 kts 170°
2026-05-05 19:03 35.70836 44.63581 34904 ft 457 kts 170°
2026-05-05 19:04 35.64866 44.66255 34882 ft 457 kts 171°
2026-05-05 19:04 35.58895 44.68925 34905 ft 457 kts 171°
2026-05-05 19:05 35.52914 44.71594 34905 ft 457 kts 171°
2026-05-05 19:05 35.46931 44.74261 34903 ft 458 kts 171°
2026-05-05 19:06 35.40946 44.76925 34909 ft 457 kts 171°
2026-05-05 19:06 35.34956 44.79587 34886 ft 457 kts 171°
2026-05-05 19:07 35.28966 44.82244 34904 ft 458 kts 171°
2026-05-05 19:07 35.22968 44.84899 34914 ft 458 kts 171°
2026-05-05 19:08 35.16969 44.87552 34903 ft 458 kts 171°
2026-05-05 19:08 35.10966 44.90203 34904 ft 458 kts 171°
2026-05-05 19:09 35.04967 44.92846 34912 ft 458 kts 171°
2026-05-05 19:09 34.98966 44.95488 34910 ft 458 kts 171°
2026-05-05 19:10 34.92966 44.98124 34909 ft 458 kts 171°
2026-05-05 19:10 34.86999 45.00742 34903 ft 460 kts 172°
2026-05-05 19:11 34.80959 45.03385 34902 ft 461 kts 172°
2026-05-05 19:11 34.74916 45.06029 34900 ft 461 kts 172°
2026-05-05 19:12 34.68858 45.08675 34901 ft 463 kts 172°
2026-05-05 19:12 34.62799 45.11317 34900 ft 463 kts 172°
2026-05-05 19:13 34.56732 45.13959 34888 ft 463 kts 172°
2026-05-05 19:13 34.50645 45.16366 34897 ft 452 kts 178°
2026-05-05 19:14 34.44527 45.17304 34898 ft 440 kts 186°
2026-05-05 19:14 34.38434 45.17752 34901 ft 438 kts 187°
2026-05-05 19:15 34.32380 45.18123 34903 ft 438 kts 187°
2026-05-05 19:15 34.26288 45.18512 34904 ft 438 kts 187°
2026-05-05 19:16 34.20198 45.18921 34903 ft 439 kts 187°
2026-05-05 19:16 34.14108 45.19336 34900 ft 439 kts 187°
2026-05-05 19:17 34.08006 45.19752 34903 ft 439 kts 187°
2026-05-05 19:17 34.01907 45.20166 34904 ft 439 kts 187°
2026-05-05 19:18 33.95802 45.20580 34903 ft 439 kts 187°
2026-05-05 19:18 33.89697 45.20993 34904 ft 439 kts 187°
2026-05-05 19:19 33.83593 45.21404 34913 ft 440 kts 187°
2026-05-05 19:19 33.77478 45.21817 34916 ft 440 kts 186°
2026-05-05 19:20 33.71363 45.22229 34927 ft 440 kts 186°
2026-05-05 19:20 33.65284 45.22638 34933 ft 440 kts 186°
2026-05-05 19:21 33.59174 45.23048 34933 ft 440 kts 186°
2026-05-05 19:21 33.53058 45.23458 34908 ft 440 kts 186°
2026-05-05 19:22 33.46933 45.23866 34942 ft 442 kts 186°
2026-05-05 19:22 33.40788 45.24277 34950 ft 442 kts 186°
2026-05-05 19:23 33.34637 45.24853 34918 ft 450 kts 181°
2026-05-05 19:23 33.31548 45.25691 34950 ft 462 kts 173°
2026-05-05 19:23 33.28504 45.27098 34947 ft 476 kts 165°
2026-05-05 19:24 33.25603 45.29132 34945 ft 491 kts 155°
2026-05-05 19:24 33.22831 45.31558 34952 ft 496 kts 153°
2026-05-05 19:24 33.17440 45.36674 34941 ft 500 kts 151°
2026-05-05 19:25 33.12033 45.41892 34950 ft 499 kts 152°
2026-05-05 19:25 33.06613 45.47047 34915 ft 498 kts 152°
2026-05-05 19:26 33.01178 45.52155 34944 ft 498 kts 152°
2026-05-05 19:26 32.95728 45.57258 34950 ft 498 kts 152°
2026-05-05 19:27 32.90281 45.62353 34954 ft 498 kts 152°
2026-05-05 19:27 32.84828 45.67446 34949 ft 498 kts 152°
2026-05-05 19:28 32.79379 45.72539 34928 ft 498 kts 152°
2026-05-05 19:28 32.73928 45.77622 34945 ft 498 kts 152°
2026-05-05 19:29 32.68466 45.82705 34949 ft 498 kts 152°
2026-05-05 19:29 32.63039 45.87750 34948 ft 499 kts 152°
2026-05-05 19:30 32.57577 45.92819 34947 ft 499 kts 152°
2026-05-05 19:30 32.52109 45.97887 34934 ft 499 kts 152°
2026-05-05 19:31 32.46634 46.02952 34950 ft 500 kts 152°
2026-05-05 19:31 32.41149 46.08018 34947 ft 500 kts 152°
2026-05-05 19:32 32.35662 46.13080 34940 ft 500 kts 152°
2026-05-05 19:32 32.30161 46.18145 34946 ft 501 kts 152°
2026-05-05 19:33 32.24659 46.23204 34946 ft 501 kts 152°
2026-05-05 19:33 32.19153 46.28259 34938 ft 501 kts 152°
2026-05-05 19:34 32.13644 46.33308 34930 ft 501 kts 152°
2026-05-05 19:35 32.05414 46.40836 34921 ft 502 kts 152°
2026-05-05 19:35 31.99889 46.45878 34912 ft 502 kts 152°
2026-05-05 19:36 31.95294 46.50068 34893 ft 503 kts 152°
2026-05-05 19:36 31.89759 46.55107 34908 ft 503 kts 152°
2026-05-05 19:37 31.84215 46.60146 34896 ft 504 kts 152°
2026-05-05 19:37 31.78648 46.65195 34892 ft 510 kts 152°
2026-05-05 19:38 31.72957 46.70335 34890 ft 520 kts 152°
2026-05-05 19:38 31.67228 46.75524 34886 ft 520 kts 152°
2026-05-05 19:39 31.61491 46.80716 34887 ft 521 kts 152°
2026-05-05 19:39 31.55746 46.85899 34881 ft 521 kts 152°
2026-05-05 19:40 31.49989 46.91082 34874 ft 521 kts 152°
2026-05-05 19:40 31.44229 46.96259 34881 ft 522 kts 152°
2026-05-05 19:41 31.38501 47.01400 34880 ft 522 kts 152°
2026-05-05 19:41 31.32726 47.06574 34885 ft 522 kts 152°
2026-05-05 19:42 31.26955 47.11737 34868 ft 523 kts 152°
2026-05-05 19:42 31.21174 47.16901 34860 ft 523 kts 152°
2026-05-05 19:43 31.15383 47.22064 34867 ft 524 kts 152°
2026-05-05 19:43 31.09586 47.27225 34863 ft 524 kts 152°
2026-05-05 19:44 31.03822 47.32350 34858 ft 525 kts 152°
2026-05-05 19:44 30.98015 47.37504 34860 ft 525 kts 152°
2026-05-05 19:45 30.92201 47.42656 34855 ft 526 kts 153°
2026-05-05 19:45 30.86377 47.47808 34854 ft 526 kts 153°
2026-05-05 19:46 30.80597 47.53091 34853 ft 532 kts 149°
2026-05-05 19:46 30.75098 47.58919 34854 ft 536 kts 146°
2026-05-05 19:47 30.69637 47.64831 34854 ft 535 kts 147°
2026-05-05 19:47 30.64132 47.70658 34856 ft 535 kts 147°
2026-05-05 19:48 30.58624 47.76398 34858 ft 535 kts 148°
2026-05-05 19:48 30.53076 47.82151 34839 ft 535 kts 148°
2026-05-05 19:49 30.47531 47.87896 34832 ft 535 kts 148°
2026-05-05 19:49 30.41974 47.93649 34824 ft 535 kts 148°
2026-05-05 19:50 30.36413 47.99397 34817 ft 536 kts 148°
2026-05-05 19:50 30.30853 48.05137 34809 ft 535 kts 148°
2026-05-05 19:51 30.25327 48.10832 34810 ft 536 kts 148°
2026-05-05 19:51 30.19761 48.16559 34825 ft 536 kts 148°
2026-05-05 19:52 30.14192 48.22279 34825 ft 536 kts 148°
2026-05-05 19:52 30.08616 48.27999 34829 ft 536 kts 148°
2026-05-05 19:53 30.03036 48.33714 34825 ft 536 kts 148°
2026-05-05 19:53 29.97449 48.39425 34819 ft 537 kts 148°
2026-05-05 19:54 29.91848 48.45141 34821 ft 537 kts 148°
2026-05-05 19:54 29.85984 48.50289 34799 ft 520 kts 161°
2026-05-05 19:55 29.79640 48.54214 34824 ft 516 kts 163°
2026-05-05 19:55 29.73217 48.57914 34816 ft 516 kts 163°
2026-05-05 19:56 29.66786 48.61587 34810 ft 516 kts 163°
2026-05-05 19:56 29.60357 48.65281 34812 ft 517 kts 163°
2026-05-05 19:57 29.53965 48.68967 34813 ft 518 kts 163°
2026-05-05 19:57 29.47524 48.72680 34809 ft 518 kts 163°
2026-05-05 19:58 29.41077 48.76391 34810 ft 518 kts 163°
2026-05-05 19:58 29.34638 48.80107 34807 ft 514 kts 163°
2026-05-05 19:59 29.28325 48.83753 34803 ft 504 kts 164°
2026-05-05 19:59 29.22070 48.87342 34807 ft 503 kts 164°
2026-05-05 20:00 29.15858 48.91066 34806 ft 512 kts 158°
2026-05-05 20:00 29.10109 48.96067 34809 ft 524 kts 150°
2026-05-05 20:01 29.04536 49.01482 34808 ft 526 kts 149°
2026-05-05 20:01 28.99003 49.06940 34785 ft 526 kts 149°
2026-05-05 20:02 28.93460 49.12367 34801 ft 525 kts 149°
2026-05-05 20:02 28.87906 49.17767 34801 ft 524 kts 149°
2026-05-05 20:03 28.82401 49.23273 34776 ft 527 kts 147°
2026-05-05 20:03 28.76980 49.28894 34795 ft 526 kts 147°
2026-05-05 20:04 28.71603 49.34454 34802 ft 525 kts 147°
2026-05-05 20:04 28.66169 49.40026 34765 ft 525 kts 147°
2026-05-05 20:05 28.60922 49.45868 34790 ft 537 kts 137°
2026-05-05 20:05 28.56681 49.52992 34785 ft 546 kts 130°
2026-05-05 20:06 28.52737 49.60397 34777 ft 549 kts 129°
2026-05-05 20:06 28.48821 49.67851 34772 ft 548 kts 129°
2026-05-05 20:07 28.44889 49.75265 34772 ft 547 kts 129°
2026-05-05 20:07 28.40276 49.81912 34764 ft 525 kts 147°
2026-05-05 20:08 28.34542 49.86833 34756 ft 514 kts 155°
2026-05-05 20:08 28.28607 49.91339 34755 ft 512 kts 156°
2026-05-05 20:09 28.22659 49.95782 34758 ft 513 kts 156°
2026-05-05 20:09 28.16747 50.00231 34747 ft 513 kts 155°
2026-05-05 20:10 28.10795 50.04734 34754 ft 514 kts 155°
2026-05-05 20:10 28.04852 50.09233 34754 ft 514 kts 155°
2026-05-05 20:11 27.98902 50.13731 34747 ft 514 kts 155°
2026-05-05 20:11 27.92954 50.18220 34752 ft 514 kts 155°
2026-05-05 20:12 27.86999 50.22707 34755 ft 514 kts 155°
2026-05-05 20:12 27.81041 50.27189 34747 ft 514 kts 155°
2026-05-05 20:13 27.75080 50.31669 34750 ft 514 kts 155°
2026-05-05 20:13 27.69123 50.36140 34757 ft 514 kts 155°
2026-05-05 20:14 27.63213 50.40570 34756 ft 513 kts 155°
2026-05-05 20:14 27.57285 50.45066 34759 ft 514 kts 154°
2026-05-05 20:15 27.51339 50.49642 34745 ft 514 kts 154°
2026-05-05 20:15 27.45463 50.54157 34764 ft 514 kts 154°
2026-05-05 20:16 27.39555 50.58688 34755 ft 514 kts 154°
2026-05-05 20:16 27.33632 50.63207 34750 ft 514 kts 154°
2026-05-05 20:17 27.27709 50.67717 34747 ft 514 kts 154°
2026-05-05 20:17 27.21792 50.72222 34760 ft 513 kts 154°
2026-05-05 20:18 27.15911 50.76782 34760 ft 517 kts 150°
2026-05-05 20:18 27.10545 50.82310 34761 ft 526 kts 143°
2026-05-05 20:19 27.05374 50.88136 34765 ft 526 kts 142°
2026-05-05 20:19 27.00400 50.94115 34760 ft 535 kts 135°
2026-05-05 20:20 26.96217 51.01096 34763 ft 541 kts 129°
2026-05-05 20:20 26.92249 51.08276 34755 ft 542 kts 128°
2026-05-05 20:21 26.88354 51.15495 34762 ft 544 kts 124°
2026-05-05 20:21 26.85448 51.23414 34761 ft 552 kts 115°
2026-05-05 20:22 26.82974 51.31562 34762 ft 554 kts 114°
2026-05-05 20:22 26.80559 51.39757 34752 ft 554 kts 113°
2026-05-05 20:23 26.78127 51.47936 34767 ft 553 kts 114°
2026-05-05 20:23 26.75679 51.56081 34768 ft 552 kts 114°
2026-05-05 20:24 26.73636 51.62844 34771 ft 552 kts 114°
2026-05-05 20:24 26.71192 51.70977 34771 ft 552 kts 114°
2026-05-05 20:25 26.68362 51.80434 34766 ft 551 kts 114°
2026-05-05 20:25 26.65926 51.88539 34774 ft 549 kts 114°
2026-05-05 20:26 26.63868 51.95247 34771 ft 547 kts 115°
2026-05-05 20:26 26.61248 52.03224 34776 ft 547 kts 115°
2026-05-05 20:27 26.58602 52.11197 34777 ft 547 kts 115°
2026-05-05 20:27 26.55978 52.19168 34775 ft 547 kts 115°
2026-05-05 20:28 26.53365 52.27142 34778 ft 546 kts 115°
2026-05-05 20:28 26.50749 52.35116 34777 ft 546 kts 115°
2026-05-05 20:29 26.48132 52.43076 34776 ft 547 kts 115°
2026-05-05 20:29 26.45508 52.51036 34777 ft 546 kts 115°
2026-05-05 20:30 26.42895 52.58946 34778 ft 547 kts 114°
2026-05-05 20:30 26.40260 52.66915 34779 ft 548 kts 114°
2026-05-05 20:31 26.37616 52.74888 34777 ft 547 kts 114°
2026-05-05 20:31 26.34971 52.82850 34779 ft 548 kts 114°
2026-05-05 20:32 26.32314 52.90821 34778 ft 549 kts 115°
2026-05-05 20:32 26.29645 52.98790 34777 ft 548 kts 114°
2026-05-05 20:33 26.26980 53.06741 34777 ft 548 kts 114°
2026-05-05 20:33 26.24306 53.14709 34776 ft 549 kts 114°
2026-05-05 20:34 26.21648 53.22611 34775 ft 549 kts 114°
2026-05-05 20:34 26.18965 53.30572 34777 ft 549 kts 114°
2026-05-05 20:35 26.16154 53.38457 34778 ft 547 kts 118°
2026-05-05 20:35 26.12966 53.46123 34778 ft 545 kts 119°
2026-05-05 20:36 26.09747 53.53761 34777 ft 545 kts 119°
2026-05-05 20:36 26.06582 53.61428 34776 ft 546 kts 118°
2026-05-05 20:37 26.03442 53.69115 34776 ft 546 kts 118°
2026-05-05 20:37 26.00306 53.76800 34780 ft 546 kts 118°
2026-05-05 20:38 25.97245 53.84541 34723 ft 546 kts 117°
2026-05-05 20:38 25.95755 53.88380 34606 ft 534 kts 117°
2026-05-05 20:38 25.94304 53.92128 34291 ft 525 kts 117°
2026-05-05 20:38 25.92848 53.95861 33358 ft 529 kts 117°
2026-05-05 20:39 25.91365 53.99628 32296 ft 535 kts 117°
2026-05-05 20:39 25.89788 54.03390 31347 ft 538 kts 119°
2026-05-05 20:39 25.88131 54.07115 30413 ft 540 kts 119°
2026-05-05 20:39 25.86432 54.10851 29366 ft 543 kts 119°
2026-05-05 20:40 25.84731 54.14588 28560 ft 539 kts 119°
2026-05-05 20:40 25.83056 54.18294 27809 ft 534 kts 118°
2026-05-05 20:40 25.81624 54.22021 27088 ft 530 kts 112°
2026-05-05 20:40 25.80336 54.25881 26352 ft 525 kts 111°
2026-05-05 20:41 25.79141 54.29639 25650 ft 520 kts 110°
2026-05-05 20:41 25.77969 54.33416 24937 ft 515 kts 110°
2026-05-05 20:41 25.76817 54.37161 24283 ft 509 kts 110°
2026-05-05 20:41 25.75682 54.40853 23660 ft 502 kts 109°
2026-05-05 20:42 25.74559 54.44490 22961 ft 495 kts 109°
2026-05-05 20:42 25.73447 54.48074 22216 ft 489 kts 109°
2026-05-05 20:42 25.72346 54.51611 21495 ft 482 kts 109°
2026-05-05 20:42 25.71253 54.55113 20747 ft 476 kts 109°
2026-05-05 20:43 25.70176 54.58553 20019 ft 470 kts 109°
2026-05-05 20:43 25.69109 54.61957 19485 ft 460 kts 109°
2026-05-05 20:43 25.68057 54.65239 19296 ft 443 kts 109°
2026-05-05 20:43 25.67038 54.68395 19092 ft 426 kts 109°
2026-05-05 20:44 25.66059 54.71429 18907 ft 411 kts 109°
2026-05-05 20:44 25.65112 54.74367 18724 ft 397 kts 109°
2026-05-05 20:44 25.64200 54.77200 18549 ft 384 kts 109°
2026-05-05 20:44 25.63318 54.79937 18375 ft 371 kts 109°
2026-05-05 20:45 25.61638 54.85161 18047 ft 348 kts 109°
2026-05-05 20:45 25.61090 54.87721 17852 ft 336 kts 98°
2026-05-05 20:45 25.60789 54.90253 17628 ft 327 kts 96°
2026-05-05 20:46 25.60527 54.92706 17312 ft 322 kts 96°
2026-05-05 20:46 25.60265 54.95160 16933 ft 319 kts 96°
2026-05-05 20:46 25.60002 54.97586 16565 ft 316 kts 96°
2026-05-05 20:46 25.59740 54.99981 16069 ft 309 kts 96°
2026-05-05 20:47 25.59482 55.02310 15578 ft 299 kts 96°
2026-05-05 20:47 25.59230 55.04551 15223 ft 286 kts 97°
2026-05-05 20:47 25.58735 55.06632 14927 ft 277 kts 114°
2026-05-05 20:47 25.57822 55.08504 14655 ft 275 kts 120°
2026-05-05 20:48 25.56819 55.10311 14523 ft 275 kts 121°
2026-05-05 20:48 25.55813 55.12107 14296 ft 273 kts 121°
2026-05-05 20:48 25.54819 55.13897 14005 ft 272 kts 121°
2026-05-05 20:48 25.53830 55.15672 13720 ft 270 kts 121°
2026-05-05 20:49 25.52838 55.17452 13408 ft 270 kts 120°
2026-05-05 20:49 25.51860 55.19211 13098 ft 267 kts 120°
2026-05-05 20:49 25.50896 55.20957 12832 ft 265 kts 120°
2026-05-05 20:49 25.49931 55.22696 12552 ft 264 kts 120°
2026-05-05 20:50 25.48973 55.24423 12277 ft 263 kts 120°
2026-05-05 20:50 25.48026 55.26132 12067 ft 256 kts 121°
2026-05-05 20:50 25.47118 55.27773 11953 ft 246 kts 121°
2026-05-05 20:50 25.46249 55.29340 11779 ft 239 kts 121°
2026-05-05 20:51 25.45385 55.30900 11552 ft 237 kts 121°
2026-05-05 20:51 25.44528 55.32453 11317 ft 236 kts 121°
2026-05-05 20:51 25.43670 55.33996 11085 ft 235 kts 121°
2026-05-05 20:51 25.42631 55.35379 10866 ft 235 kts 140°
2026-05-05 20:52 25.41182 55.36166 10626 ft 234 kts 168°
2026-05-05 20:52 25.39570 55.36113 10389 ft 234 kts 196°
2026-05-05 20:52 25.38108 55.35345 10166 ft 234 kts 212°
2026-05-05 20:52 25.36932 55.34121 9920 ft 235 kts 237°
2026-05-05 20:53 25.36389 55.32378 9722 ft 248 kts 267°
2026-05-05 20:53 25.36735 55.30521 9520 ft 249 kts 297°
2026-05-05 20:53 25.37592 55.28860 9141 ft 249 kts 303°
2026-05-05 20:53 25.38529 55.27241 8764 ft 250 kts 303°
2026-05-05 20:54 25.39459 55.25627 8476 ft 247 kts 303°
2026-05-05 20:54 25.40368 55.24022 8211 ft 246 kts 303°
2026-05-05 20:54 25.41264 55.22424 7951 ft 244 kts 303°
2026-05-05 20:54 25.42158 55.20820 7694 ft 243 kts 303°
2026-05-05 20:55 25.43046 55.19229 7459 ft 242 kts 303°
2026-05-05 20:55 25.43922 55.17643 7204 ft 241 kts 303°
2026-05-05 20:55 25.44791 55.16068 6966 ft 238 kts 303°
2026-05-05 20:55 25.45633 55.14539 6840 ft 228 kts 303°
2026-05-05 20:56 25.46443 55.13080 6707 ft 218 kts 304°
2026-05-05 20:56 25.47879 55.10489 6378 ft 208 kts 304°
2026-05-05 20:56 25.48634 55.09127 6176 ft 207 kts 304°
2026-05-05 20:57 25.49385 55.07776 5971 ft 206 kts 304°
2026-05-05 20:57 25.50139 55.06423 5746 ft 206 kts 303°
2026-05-05 20:57 25.50886 55.05070 5565 ft 206 kts 303°
2026-05-05 20:57 25.51573 55.03699 5347 ft 202 kts 294°
2026-05-05 20:58 25.51737 55.02177 5177 ft 204 kts 261°
2026-05-05 20:58 25.51032 55.00830 4980 ft 207 kts 222°
2026-05-05 20:58 25.49853 54.99928 4758 ft 207 kts 211°
2026-05-05 20:58 25.48586 54.99183 4519 ft 207 kts 202°
2026-05-05 20:59 25.47171 54.99021 4325 ft 207 kts 168°
2026-05-05 20:59 25.45976 54.99782 4062 ft 202 kts 129°
2026-05-05 20:59 25.45171 55.01066 3824 ft 200 kts 120°
2026-05-05 20:59 25.44468 55.02389 3583 ft 198 kts 119°
2026-05-05 21:00 25.43781 55.03679 3342 ft 196 kts 120°
2026-05-05 21:00 25.43083 55.04973 3108 ft 195 kts 120°
2026-05-05 21:00 25.42382 55.06254 3020 ft 194 kts 120°
2026-05-05 21:00 25.41681 55.07527 3007 ft 194 kts 120°
2026-05-05 21:01 25.40980 55.08796 3002 ft 193 kts 120°
2026-05-05 21:01 25.40277 55.10066 3005 ft 193 kts 120°
2026-05-05 21:01 25.39575 55.11328 3000 ft 192 kts 121°
2026-05-05 21:01 25.38758 55.12411 2991 ft 177 kts 130°
2026-05-05 21:02 25.38031 55.13484 3010 ft 172 kts 121°
2026-05-05 21:02 25.37406 55.14581 3002 ft 164 kts 120°
2026-05-05 21:02 25.36819 55.15644 2998 ft 161 kts 120°
2026-05-05 21:02 25.36239 55.16698 3001 ft 161 kts 120°